This is the latest recevied weather packets stored in our database for station/object OH2HCY-3. If no packets are shown the sender has not sent any weather packets the latest 10 day(s).
| Time | Temp. | Humidity | Pressure | Rain* | Wind** | Luminosity | Snow |
|---|---|---|---|---|---|---|---|
| 1777197729 | -15.56° C | - | - | - | - | - | - |
| 1777197725 | 6.67° C | 28% | 1004.8 hPa | - | - | - | - |
| 1777196634 | 6.11° C | 29% | 1004.9 hPa | - | - | - | - |
| 1777195485 | 5.56° C | 29% | 1004.3 hPa | - | - | - | - |
| 1777194515 | 5.56° C | 30% | 1004.3 hPa | - | - | - | - |
| 1777193430 | 5° C | 33% | 1004.2 hPa | - | - | - | - |
| 1777192424 | 5° C | 33% | 1003.8 hPa | - | - | - | - |
| 1777191405 | 5.56° C | 33% | 1003.5 hPa | - | - | - | - |
| 1777190244 | 4.44° C | 33% | 1003.3 hPa | - | - | - | - |
| 1777189238 | - | - | - | - | - | - | - |
| 1777189235 | 4.44° C | 33% | 1003.3 hPa | - | - | - | - |
| 1777188165 | 4.44° C | 33% | 1002.9 hPa | - | - | - | - |
| 1777187034 | 4.44° C | 34% | 1002.8 hPa | - | - | - | - |
| 1777187030 | 4.44° C | 34% | 1002.8 hPa | - | - | - | - |
| 1777186042 | 3.89° C | 37% | 1002.8 hPa | - | - | - | - |
| 1777186041 | 3.89° C | 37% | 1002.8 hPa | - | - | - | - |
| 1777185030 | 3.33° C | 39% | 1002.6 hPa | - | - | - | - |
| 1777184021 | 2.22° C | 44% | 1002.5 hPa | - | - | - | - |
| 1777184015 | 2.22° C | 44% | 1002.5 hPa | - | - | - | - |
| 1777182844 | 1.67° C | 45% | 1002.1 hPa | - | - | - | - |
| 1777182842 | 1.67° C | 45% | 1002.1 hPa | - | - | - | - |
| 1777181725 | 1.67° C | 46% | 1001.9 hPa | - | - | - | - |
| 1777180640 | 1.67° C | 47% | 1001.6 hPa | - | - | - | - |
| 1777179525 | 1.67° C | 48% | 1001.3 hPa | - | - | - | - |
| 1777178455 | 1.11° C | 49% | 1001.1 hPa | - | - | - | - |
* Rain since midnight (hover to see other rain measurements)
** Current wind speed in m/s (hover to see current wind gust speed)